www.pogodaiklimat.ru

Погода и климат >> Архив погоды >> Пакистан >> Мохенджо-Даро


ПОГОДА в Мохенджо-Даро

  • Прогноз погоды в Мохенджо-Даро
  • Монитор погоды в Мохенджо-Даро

АРХИВ ПОГОДЫ в Мохенджо-Даро

Время (UTC), дата Ветер
(напр.,м/с)
 
Видим.   Явления Облачность Т
(С)
Тd
(С)
f
(%)
Тe
(С)
Тes
(С)
Комфортность P
(гПа)
Po
(гПа)
Тmin
(С)
Tmax
(С)
R
(мм)
R24
(мм)
S
(см)
00 13.06 штиль 0 4000 м ясно +30.0 +24.3 72 +42 +42 опасность
перегрева
995.9 990.2
03 13.06 В 1 4000 м ясно +34.0 +24.1 56 +46 +52 опасность
перегрева
998.2 992.5 +29.5
06 13.06 В 1 4000 м пыль ясно +38.5 +22.9 41 +48 +71 опасность
перегрева
998.9 992.7
09 13.06 В 1 4000 м пыль ясно +41.5 +21.4 32 +48 +71 опасность
перегрева
998.0 991.8
12 13.06 В 2 4000 м пыль ясно +41.0 +20.7 31 +47 +52 опасность
перегрева
995.9 990.5 +42.0
15 13.06 штиль 0 4000 м пыль ясно +38.0 +22.3 41 +47 +47 опасность
перегрева
996.3 990.1
18 13.06 ЮВ 2 4000 м пыль ясно +34.5 +23.9 54 +46 +46 опасность
перегрева
998.8 992.5
21 13.06 ЮВ 1 4000 м ясно +32.5 +24.0 61 +44 +44 опасность
перегрева
998.2 991.9
00 14.06 ЮВ 1 4000 м ясно +31.0 +23.9 66 +43 +43 опасность
перегрева
998.3 992.5
03 14.06 ЮВ 4 4000 м ясно +33.0 +23.0 56 +43 +47 опасность
перегрева
999.2 993.5 +30.0
06 14.06 ЮВ 3 4000 м ясно +38.0 +21.4 38 +45 +61 опасность
перегрева
999.2 993.0
09 14.06 ЮВ 3 4000 м ясно +41.0 +21.7 33 +48 +64 опасность
перегрева
997.7 991.5
12 14.06 ЮВ 2 4000 м ясно +41.5 +21.4 32 +48 +54 опасность
перегрева
995.9 990.5 +42.0
15 14.06 ЮВ 2 4000 м ясно +36.5 +22.1 43 +45 +45 опасность
перегрева
996.4 990.2
18 14.06 ЮВ 1 4000 м ясно +34.0 +23.3 54 +45 +45 опасность
перегрева
998.7 992.4
21 14.06 ЮВ 1 4000 м ясно +32.0 +24.2 63 +44 +44 опасность
перегрева
997.9 991.5
00 15.06 ЮВ 2 4000 м ясно +31.0 +23.9 66 +43 +43 опасность
перегрева
997.7 992.0
03 15.06 ЮВ 3 4000 м ясно +33.0 +23.0 56 +43 +48 опасность
перегрева
998.6 992.9 +30.5
06 15.06 ЮВ 5 4000 м ясно +38.5 +22.9 41 +48 +58 опасность
перегрева
998.9 992.7
09 15.06 ЮВ 6 4000 м ясно +40.0 +23.1 38 +49 +56 опасность
перегрева
997.6 991.4
12 15.06 ЮВ 6 4000 м ясно +40.5 +22.8 37 +50 +52 опасность
перегрева
995.0 989.6 +41.0
15 15.06 ЮВ 5 4000 м ясно +35.5 +25.1 55 +49 +49 опасность
перегрева
995.5 989.2
18 15.06 ЮВ 7 4000 м ясно +34.5 +23.9 54 +46 +46 опасность
перегрева
996.5 990.2
21 15.06 ЮВ 5 4000 м ясно +31.5 +22.9 60 +41 +41 опасность
перегрева
996.3 989.9
00 16.06 ЮВ 7 4000 м ясно +30.0 +22.8 65 +40 +40 очень
душно
996.4 990.7
03 16.06 ЮВ 9 4000 м ясно +31.5 +22.9 60 +41 +42 опасность
перегрева
997.5 991.9 +29.0
06 16.06 ЮВ 5 4000 м ясно +36.5 +23.0 46 +46 +56 опасность
перегрева
998.9 992.6
09 16.06 ЮВ 4 4000 м ясно +39.0 +24.4 44 +51 +64 опасность
перегрева
998.1 991.9
12 16.06 ЮВ 5 4000 м ясно +39.5 +24.2 42 +51 +53 опасность
перегрева
996.7 991.3 +40.0
15 16.06 ЮВ 6 4000 м ясно +35.5 +24.3 52 +47 +47 опасность
перегрева
997.3 991.0
18 16.06 ЮВ 7 4000 м ясно +34.0 +24.1 56 +46 +46 опасность
перегрева
998.7 992.4
21 16.06 ЮВ 6 4000 м ясно +32.0 +23.4 60 +43 +43 опасность
перегрева
997.9 991.5
00 17.06 ЮВ 7 4000 м ясно +29.0 +23.2 71 +39 +39 очень
душно
998.1 992.4
03 17.06 ЮВ 5 4000 м ясно +31.5 +23.6 63 +43 +45 опасность
перегрева
998.6 992.9 +28.5
06 17.06 ЮВ 7 4000 м ясно +35.5 +24.3 52 +47 +52 опасность
перегрева
998.7 992.4
09 17.06 ЮВ 5 4000 м ясно +38.5 +24.6 45 +50 +60 опасность
перегрева
997.7 991.5
12 17.06 ЮВ 7 4000 м ясно +39.0 +24.4 44 +51 +52 опасность
перегрева
994.8 989.3 +39.5
15 17.06 ЮВ 4 4000 м ясно +35.0 +23.7 52 +46 +46 опасность
перегрева
994.6 988.3
18 17.06 ЮВ 6 4000 м ясно +32.0 +23.4 60 +43 +43 опасность
перегрева
997.0 990.7
21 17.06 ЮВ 5 4000 м ясно +30.0 +23.5 68 +41 +41 опасность
перегрева
996.4 990.0
00 18.06 ЮВ 5 4000 м ясно +29.0 +24.0 74 +40 +40 очень
душно
995.6 989.9
03 18.06 ЮВ 5 4000 м ясно +30.5 +24.9 72 +44 +46 опасность
перегрева
996.2 990.5 +28.0
06 18.06 штиль 0 4000 м ясно +36.5 +25.5 53 +51 +77 опасность
перегрева
996.5 990.3
09 18.06 В 2 4000 м ясно +39.5 +25.8 46 +54 +73 опасность
перегрева
995.7 989.5
12 18.06 В 2 4000 м ясно +39.5 +25.8 46 +54 +59 опасность
перегрева
993.6 988.2 +40.0
15 18.06 ЮВ 4 4000 м ясно +36.5 +24.6 51 +49 +49 опасность
перегрева
994.0 987.8
18 18.06 ЮВ 1 4000 м ясно +35.0 +24.5 55 +48 +48 опасность
перегрева
996.4 990.1
21 18.06 ЮВ 1 4000 м ясно +33.0 +24.6 61 +46 +46 опасность
перегрева
996.0 989.7
00 19.06 штиль 0 4000 м ясно +29.5 +23.8 71 +40 +40 очень
душно
996.4 990.7
03 19.06 штиль 0 4000 м ясно +32.5 +24.0 61 +44 +52 опасность
перегрева
997.8 992.2 +29.0
06 19.06 С 1 4000 м ясно +37.5 +25.8 51 +52 +75 опасность
перегрева
998.3 992.1
09 19.06 ЮВ 1 4000 м ясно +40.0 +25.6 44 +54 +76 опасность
перегрева
997.4 991.2
12 19.06 ЮВ 3 4000 м 4/0
[Ac trans]
+39.5 +25.0 44 +52 +56 опасность
перегрева
995.2 989.8 +41.0
15 19.06 ЮВ 3 2000 м пыль ясно +36.5 +22.1 43 +45 +45 опасность
перегрева
995.8 989.6
18 19.06 ЮВ 2 4000 м ясно +34.0 +23.3 54 +45 +45 опасность
перегрева
998.4 992.1

 

Местоположение метеостанции Мохенджо-Даро (Пакистан): широта 27.32 долгота 68.13 высота над уровнем моря 57 м.

В архиве по умолчанию представлена погода в Мохенджо-Даро за последнюю неделю. Архивные данные за месяц целиком и за предыдущие месяцы, начиная с января 2011 года, Вы можете получить, выбрав интересующий диапазон дат из раскрывающегося списка и нажав кнопку "Ввод!".


*Определитесь, кто Вы:
робот инопланетянин человек

Внимание! Время в таблицах - всемирное. Для получения местного времени необходимо прибавить поправку, которая равна 5 ч.

Смотрите также архив погоды в соседних городах и на ближайших метеорологических станциях:

Погода в Ларкане (Пакистан) (26 км)
Погода в Пад Идан (Пакистан) (52 км)
Погода в Суккуре (Пакистан) (77 км)
Погода в Рохри (Пакистан) (85 км)
Погода в Джейкобабаде (Пакистан) (114 км)
Погода в Навабшахе (Пакистан) (121 км)
Погода в Даду (Пакистан) (152 км)
Погода в Хуздаре (Пакистан) (158 км)
Погода в Мир Пур Кхас (Пакистан) (217 км)
Погода в Хайдарабате (Пакистан) (218 км)

Пояснения к столбцам:

Ветер - указаны скорость ветра в м/с - средняя за 10 мин, порывы в срок и между сроками (в фигурных скобках) и направление, откуда дует ветер: С - северный, СВ - северо-восточный, В - восточный, ЮВ - юго-восточный, Ю - южный, ЮЗ - юго-западный, З - западный, СЗ - северо-западный.
Видимость - горизонтальная дальность видимости в метрах или километрах. При видимости от 1 до 10 км при отсутствии осадков обычно наблюдается дымка, при ухудшении видимости до 1 км и менее - туман. В сухую погоду видимость может ухудшаться дымом, пылью или мглою.
Явления - указаны атмосферные явления, наблюдавшиеся в срок или в последний час перед сроком; фигурными скобками обозначены явления, наблюдавшиеся между сроками (за 1-3 часа до срока); квадратными скобками обозначены град или гололедные отложения с указанием их диаметра в мм.
Облачность - указаны через наклонную черту общая и нижняя облачность в баллах и высота нижней границы облаков в метрах; квадратными скобками обозначены формы облаков: Ci - перистые, Cs - перисто-слоистые, Cc - перисто-кучевые, Ac - высококучевые, As - высокослоистые, Sc - слоисто-кучевые, Ns - слоисто-дождевые, Cu - кучевые, Cb - кучево-дождевые. Подробнее классификацию облаков см. в Атласе облаков (PDF).
T - Температура воздуха - температура, измеренная на высоте 2 м над землей.
Td - Температура точки росы - температура, при понижении до которой содержащийся в воздухе водяной пар достигнет насыщения.
f - Относительная влажность воздуха - влажноcть воздуха, измеренная на высоте 2 м над землей.
Te - Эффективная температура - температура, которую ощущает одетый по сезону человек в тени. Характеристика душности погоды. При расчете учитывается влияние влажности воздуха и скорости ветра на теплоощущения человека.
Tes - Эффективная температура на солнце - температура, которую ощущает человек, с поправкой на солнечный нагрев. Характеристика знойности погоды. Зависит от высоты солнца над горизонтом, облачности и скорости ветра. Ночью, в пасмурную погоду, а также при ветре 12 м/с и более поправка равна нулю.
P - Атмосферное давление - приведенное к уровню моря атмосферное давление.
Po - Атмосферное давление - измеренное на уровне метеостанции атмосферное давление.
Tmin - Минимальная температура - минимум температуры воздуха на высоте 2 м над землей.
Tmax - Максимальная температура - максимум температуры воздуха на высоте 2 м над землей.
R - Количество осадков - Количество выпавших осадков за период времени, мм. При наведении курсора мыши на число - период времени, за который выпало указанное количество осадков.
R24 - Количество осадков - Количество выпавших осадков за 24 часа, мм.
S - Снежный покров - Высота снежного покрова, см. При наведении курсора мыши на число - состояние снежного покрова и степень покрытия местности в баллах.